Home > Time Zones > World Clock > Weather > U.S.A. > Bend > Past weeks

Flag for U.S.A. Weather past 2 weeks in Bend, Oregon, U.S.A.

Now
83 °F

Sunny.


Feels Like: 81 °F
Forecast: 47 / 83 °F
Wind: 12 mph from Northwest

Location: Roberts Field Airport

Current Time: Sep 20, 2014 at 3:20:12 PM

Latest Report: Sep 20, 2014 at 2:56 PM


Visibility: 10 mi

Pressure: 29.97 "Hg

Humidity: 27%

Dew point: 46 °F

Location of BendLocation

Historic Weather in Bend — Graph

°F

Bend temperature yesterday

Maximum temperature yesterday: 80 °F (at 4:56 PM)
Minimum temperature yesterday: 42 °F (at 4:56 AM)
Average temperature yesterday: 61 °F

Past Weeks' High & Low Weather Summary

 TemperatureHumidityPressure
High89 °F (Sep 16, 3:56 PM)96% (Sep 19, 4:56 AM)30.31 "Hg (Sep 19, 4:56 AM)
Low27 °F (Sep 12, 5:56 AM)8% (Sep 7, 4:56 PM)29.62 "Hg (Sep 17, 5:56 PM)
Average61 °F38%29.96 "Hg
* Reported Sep 5 12:56 PM — Sep 20 12:56 PM, Bend, Weather by CustomWeather, © 2014

Note: Actual official high and low records may vary slightly from our data, if they occured in-between our weather recording intervals... More about our weather records

Advertising

Bend weather history for previous 24 hours

 ConditionsComfort  
Time TempWeatherWind HumidityBarometerVisibility
12:56 PM
Sep 20
77 °FSunny.6 mph32%30.03 "Hg10 mi
11:56 AM74 °FSunny.8 mph36%30.06 "Hg10 mi
10:56 AM69 °FSunny.3 mph42%30.09 "Hg10 mi
5:56 AM43 °FClear.3 mph82%30.07 "Hg10 mi
4:56 AM45 °FClear.No wind76%30.06 "Hg10 mi
3:56 AM45 °FClear.3 mph80%30.06 "Hg10 mi
2:56 AM50 °FClear.5 mph71%30.06 "Hg10 mi
1:56 AM51 °FClear.6 mph69%30.06 "Hg10 mi
12:56 AM54 °FClear.3 mph64%30.06 "Hg10 mi
11:56 PM
Sep 19
53 °FClear.3 mph64%30.06 "Hg10 mi
10:56 PM52 °FClear.No wind64%30.06 "Hg10 mi
9:56 PM62 °FClear.3 mph52%30.05 "Hg10 mi
8:56 PM66 °FClear.5 mph43%30.03 "Hg10 mi
7:56 PM65 °FSunny.3 mph44%30.03 "Hg10 mi
6:56 PM75 °FSunny.6 mph32%30.00 "Hg10 mi
5:56 PM79 °FSunny.8 mph28%30.01 "Hg10 mi
4:56 PM80 °FSunny.12 mph26%30.01 "Hg10 mi
3:56 PM79 °FSunny.9 mph26%30.01 "Hg10 mi
Weather by CustomWeather, © 2014

See weather overviewHow to use our weather pages